This demonstration page uses our WeatherBlox Daily Observations layout. Learn more.

Left ArrowRight Arrow

34.02893, -84.19858

Hourly Observations for May 1, 2022

Temp ( °F °C ) Dew Point ( °F °C ) Humidity (%) Winds ( mph kmh ) Pressure ( in mb ) Visibility ( mi km ) Precip ( " mm )
12:53 am 00:53 Clear 66 18.9 59 15 78 78 Calm 30.02 1017 10 16 0.00 0.00
1:53 am 01:53 Mostly Clear 65 18.3 60 15.6 84 84 SSE 3 6 30.00 1016 10 16 0.00 0.00
2:53 am 02:53 Mostly Clear 64 17.8 59 15 84 84 Calm 30.00 1016 10 16 0.00 0.00
3:53 am 03:53 Clear 64 17.8 59 15 84 84 SSE 5 7 29.99 1016 10 16 0.00 0.00
4:53 am 04:53 Cloudy 64 17.8 59 15 84 84 SSE 7 11 30.00 1016 10 16 0.00 0.00
5:53 am 05:53 Partly Cloudy 63 17.2 60 15.6 90 90 S 6 9 30.01 1016 10 16 0.00 0.00
6:25 am 06:25 Mostly Cloudy 63 17.2 60 15.6 90 90 SSW 5 7 30.04 1017 10 16 0.00 0.00
6:45 am 06:45 Cloudy 64 17.8 61 16.1 90 90 S 5 7 30.04 1017 10 16 0.00 0.00
6:53 am 06:53 Cloudy 64 17.8 61 16.1 90 90 S 6 9 30.03 1017 10 16 0.00 0.00
7:53 am 07:53 Cloudy 65 18.3 62 16.7 90 90 S 5 7 30.05 1018 10 16 0.00 0.00
8:53 am 08:53 Mostly Cloudy 68 20 63 17.2 84 84 SW 9 15 30.06 1018 10 16 0.00 0.00
9:30 am 09:30 Cloudy 68 20 64 17.8 87 87 SW 8 13 30.07 1018 9 14 0.00 0.00
9:53 am 09:53 Cloudy 69 20.6 64 17.8 84 84 SSW 9 15 30.07 1018 9 14 0.00 0.00
10:36 am 10:36 Cloudy 70 21.1 64 17.8 82 82 SSW 10 17 30.07 1018 10 16 0.00 0.00
10:53 am 10:53 Cloudy 70 21.1 64 17.8 82 82 SSW 10 17 30.06 1018 9 14 0.00 0.00
11:17 am 11:17 Partly Cloudy 71 21.7 64 17.8 79 79 SW 13 20 30.07 1018 10 16 0.00 0.00
11:32 am 11:32 Mostly Cloudy 72 22.2 64 17.8 76 76 WSW 10 17 30.07 1018 10 16 0.00 0.00
11:53 am 11:53 Mostly Cloudy 72 22.2 63 17.2 73 73 WSW 14 22 30.06 1018 10 16 0.00 0.00
12:38 pm 12:38 Partly Cloudy 75 23.9 64 17.8 69 69 SSW 8 13 30.03 1017 10 16 0.00 0.00
12:53 pm 12:53 Sunny 76 24.4 63 17.2 64 64 SSW 12 19 30.04 1017 10 16 0.00 0.00
1:53 pm 13:53 Partly Cloudy 75 23.9 62 16.7 64 64 SW 10 17 30.02 1017 10 16 0.00 0.00
2:53 pm 14:53 Partly Cloudy 77 25 62 16.7 60 60 SSW 12 19 30.02 1017 10 16 0.00 0.00
3:53 pm 15:53 Mostly Sunny 80 26.7 63 17.2 56 56 SW 13 20 30.00 1016 10 16 0.00 0.00
4:53 pm 16:53 Mostly Sunny 79 26.1 61 16.1 54 54 SSW 8 13 29.98 1015 10 16 0.00 0.00
5:53 pm 17:53 Sunny 81 27.2 61 16.1 51 51 VRB 6 9 29.97 1015 10 16 0.00 0.00
6:53 pm 18:53 Mostly Sunny 79 26.1 60 15.6 52 52 SSW 13 20 29.97 1015 10 16 0.00 0.00
7:53 pm 19:53 Sunny 76 24.4 60 15.6 58 58 SSW 7 11 29.97 1015 10 16 0.00 0.00
8:53 pm 20:53 Clear 72 22.2 61 16.1 68 68 SSW 6 9 29.99 1016 10 16 0.00 0.00
9:53 pm 21:53 Clear 70 21.1 61 16.1 73 73 S 5 7 30.01 1016 10 16 0.00 0.00
10:53 pm 22:53 Clear 68 20 62 16.7 81 81 S 3 6 30.02 1017 10 16 0.00 0.00
11:53 pm 23:53 Clear 65 18.3 61 16.1 87 87 SSE 3 6 30.03 1017 10 16 0.00 0.00

Powered by AerisWeather